Location: Tierz
(42.1336°N, 0.3549°W)
Time: 06:26:52
(UTC+00:00)

USA 308 - Pass Details

Date: 29 October 2020
Orbit: 571 x 578 km, 54.0° (Epoch: 23 November)

Event Time Altitude Azimuth Distance (km) Brightness Sun altitude
Rises 18:44:25 0° 309° (NW) 2,785 7.2 -20.1°
Reaches altitude 10° 18:46:41 10° 312° (NW) 1,883 6.2 -20.6°
Maximum altitude 18:50:58 71° 37° (NE) 609 2.8 -21.3°
Enters shadow 18:51:17 67° 71° (ENE) 623 2.7 -21.4°
